Location: Cazarilh
(42.9578°N, 0.5819°E)
Time: 07:57:07
(UTC+00:00)

Cosmos 1603 - Pass Details

Date: 11 December 2019
Orbit: 830 x 860 km, 71.0° (Epoch: 20 January)

Event Time Altitude Azimuth Distance (km) Brightness Sun altitude
Exits shadow 05:52:35 22° 297° (WNW) 1,790 4.8 -15.1°
Maximum altitude 05:55:04 31° 257° (WSW) 1,466 4.5 -14.7°
Drops below altitude 10° 05:59:59 10° 197° (SSW) 2,472 6.2 -13.8°
Sets 06:02:40 0° 187° (S) 3,399 7.0 -13.3°
